| time (UTC) | temp F | wind direction | speed MPH | gust MPH | rain 1hr in | rain 24hr in | rain mn in | humidity % | barometer mb |
| 20260504081526 | 51 | 360 | 0.0 | 4.0 | 0.00 | 0.00 | 0.00 | 59 | 1002.7 |
| 20260504044554 | 55 | 360 | 3.0 | 5.0 | 0.00 | 0.00 | 0.00 | 54 | 1004.3 |
| 20260504043111 | 56 | 360 | 5.0 | 6.0 | 0.00 | 0.00 | 0.00 | 51 | 1004.6 |
| 20260504041552 | 57 | 360 | 4.0 | 10.0 | 0.00 | 0.00 | 0.00 | 50 | 1004.7 |
| 20260504040052 | 56 | 360 | 3.0 | 11.0 | 0.00 | 0.00 | 0.00 | 53 | 1005.0 |
| 20260504034553 | 55 | 360 | 1.0 | 5.0 | 0.00 | 0.00 | 0.00 | 53 | 1005.2 |
| 20260504033101 | 55 | 360 | 4.0 | 5.0 | 0.00 | 0.00 | 0.00 | 51 | 1005.6 |
| 20260504031555 | 56 | 360 | 0.0 | 4.0 | 0.00 | 0.00 | 0.00 | 45 | 1004.9 |
| 20260504024550 | 60 | 360 | 1.0 | 3.0 | 0.00 | 0.00 | 0.00 | 41 | 1004.2 |
| 20260504023049 | 63 | 360 | 3.0 | 5.0 | 0.00 | 0.00 | 0.00 | 37 | 1004.1 |
| 20260504021550 | 65 | 360 | 2.0 | 3.0 | 0.00 | 0.00 | 0.00 | 34 | 1003.8 |
| 20260504020053 | 68 | 360 | 1.0 | 4.0 | 0.00 | 0.00 | 0.00 | 31 | 1003.5 |
| 20260504014547 | 70 | 360 | 3.0 | 5.0 | 0.00 | 0.00 | 0.00 | 29 | 1003.4 |
| 20260504013052 | 71 | 360 | 3.0 | 5.0 | 0.00 | 0.00 | 0.00 | 28 | 1003.4 |
| 20260504011546 | 72 | 360 | 3.0 | 6.0 | 0.00 | 0.00 | 0.00 | 27 | 1003.5 |
| 20260504010055 | 73 | 360 | 4.0 | 8.0 | 0.00 | 0.00 | 0.00 | 26 | 1003.5 |
| 20260504004546 | 74 | 360 | 4.0 | 10.0 | 0.00 | 0.00 | 0.00 | 26 | 1003.7 |
| 20260504003043 | 74 | 360 | 4.0 | 8.0 | 0.00 | 0.00 | 0.00 | 25 | 1004.0 |
| 20260504001541 | 75 | 360 | 4.0 | 8.0 | 0.00 | 0.00 | 0.00 | 25 | 1004.1 |
| 20260504000038 | 74 | 360 | 5.0 | 10.0 | 0.00 | 0.00 | 0.00 | 25 | 1004.3 |
| 20260503234540 | 74 | 360 | 3.0 | 5.0 | 0.00 | 0.00 | 0.00 | 25 | 1004.5 |
| 20260503233036 | 74 | 360 | 1.0 | 11.0 | 0.00 | 0.00 | 0.00 | 24 | 1004.7 |
| 20260503231533 | 75 | 360 | 1.0 | 9.0 | 0.00 | 0.00 | 0.00 | 24 | 1004.8 |
| 20260503230034 | 74 | 360 | 6.0 | 9.0 | 0.00 | 0.00 | 0.00 | 25 | 1004.9 |
| 20260503224530 | 75 | 360 | 4.0 | 8.0 | 0.00 | 0.00 | 0.00 | 24 | 1005.0 |
| 20260503223028 | 76 | 121 | 6.0 | 9.0 | 0.00 | 0.00 | 0.00 | 23 | 1005.2 |
| 20260503221531 | 77 | 109 | 4.0 | 9.0 | 0.00 | 0.00 | 0.00 | 22 | 1005.5 |
| 20260503220031 | 77 | 186 | 7.0 | 9.0 | 0.00 | 0.00 | 0.00 | 23 | 1005.7 |
| 20260503214529 | 76 | 215 | 3.0 | 10.0 | 0.00 | 0.00 | 0.00 | 24 | 1006.1 |
| 20260503213029 | 76 | 178 | 5.0 | 8.0 | 0.00 | 0.00 | 0.00 | 24 | 1006.4 |
| 20260503211517 | 76 | 360 | 2.0 | 11.0 | 0.00 | 0.00 | 0.00 | 23 | 1006.7 |
| 20260503210017 | 77 | 231 | 2.0 | 10.0 | 0.00 | 0.00 | 0.00 | 24 | 1006.8 |
| 20260503204518 | 77 | 193 | 6.0 | 11.0 | 0.00 | 0.00 | 0.00 | 24 | 1007.0 |
| 20260503203012 | 76 | 155 | 6.0 | 10.0 | 0.00 | 0.00 | 0.00 | 23 | 1007.4 |
| 20260503201506 | 76 | 360 | 5.0 | 16.0 | 0.00 | 0.00 | 0.00 | 24 | 1007.7 |
| 20260503200100 | 74 | 360 | 6.0 | 15.0 | 0.00 | 0.00 | 0.00 | 26 | 1007.9 |
| 20260503194619 | 73 | 360 | 1.0 | 14.0 | 0.00 | 0.00 | 0.00 | 27 | 1008.0 |
| 20260503193055 | 73 | 360 | 3.0 | 13.0 | 0.00 | 0.00 | 0.00 | 27 | 1008.0 |
| 20260503191558 | 72 | 360 | 6.0 | 16.0 | 0.00 | 0.00 | 0.00 | 28 | 1008.1 |
| 20260503190056 | 72 | 360 | 6.0 | 10.0 | 0.00 | 0.00 | 0.00 | 27 | 1008.4 |
| 20260503184547 | 71 | 360 | 9.0 | 13.0 | 0.00 | 0.00 | 0.00 | 28 | 1008.6 |
| 20260503183053 | 71 | 360 | 10.0 | 18.0 | 0.00 | 0.00 | 0.00 | 28 | 1008.8 |
| 20260503181557 | 71 | 360 | 8.0 | 12.0 | 0.00 | 0.00 | 0.00 | 29 | 1008.9 |
| 20260503180047 | 71 | 360 | 11.0 | 17.0 | 0.00 | 0.00 | 0.00 | 29 | 1009.3 |
| 20260503174537 | 70 | 360 | 6.0 | 14.0 | 0.00 | 0.00 | 0.00 | 29 | 1009.5 |
| 20260503173034 | 69 | 360 | 6.0 | 14.0 | 0.00 | 0.00 | 0.00 | 30 | 1009.9 |
| 20260503171530 | 69 | 360 | 8.0 | 14.0 | 0.00 | 0.00 | 0.00 | 30 | 1010.2 |